This is the latest recevied weather packets stored in our database for station/object WX5HOT. If no packets are shown the sender has not sent any weather packets the latest 1 day(s).
| Time | Temp. | Humidity | Pressure | Rain* | Wind** | Luminosity | Snow |
|---|---|---|---|---|---|---|---|
| 1778104703 | 8.33° C | 99% | 1063.7 hPa | 0 mm | - | 158 W/m² | - |
| 1778103490 | 8.33° C | 99% | 1063.4 hPa | 0 mm | - | 101 W/m² | - |
| 1778101365 | 7.78° C | 99% | 1064.3 hPa | 0 mm | - | 67 W/m² | - |
| 1778100758 | 8.33° C | 99% | 1064 hPa | 0 mm | - | 148 W/m² | - |
| 1778100455 | 7.78° C | 99% | 1064 hPa | 0 mm | - | 157 W/m² | - |
| 1778099850 | 7.78° C | 99% | 1063.5 hPa | 0 mm | - | 216 W/m² | - |
| 1778099547 | 7.78° C | 99% | 1063.3 hPa | 0 mm | - | 193 W/m² | - |
| 1778098941 | 7.78° C | 99% | 1064 hPa | 0 mm | - | 353 W/m² | - |
| 1778098638 | 7.78° C | 99% | 1064.4 hPa | 0 mm | - | 192 W/m² | - |
| 1778097729 | 7.78° C | 99% | 1063.9 hPa | 0 mm | - | 343 W/m² | - |
| 1778097425 | 7.22° C | 99% | 1064.4 hPa | 0 mm | - | 305 W/m² | - |
| 1778095606 | 7.22° C | 99% | 1063.7 hPa | 0 mm | - | 215 W/m² | - |
| 1778094695 | 7.22° C | 99% | 1064.3 hPa | 0 mm | - | 218 W/m² | - |
| 1778094393 | 7.22° C | 99% | 1063 hPa | 0 mm | - | 283 W/m² | - |
| 1778093787 | 6.67° C | 99% | 1062.6 hPa | 1.27 mm | - | 131 W/m² | - |
| 1778093483 | 7.22° C | 99% | 1063.7 hPa | 1.78 mm | - | 93 W/m² | - |
| 1778093180 | 7.22° C | 99% | 1064.4 hPa | 4.83 mm | - | 122 W/m² | - |
| 1778092574 | 7.22° C | 99% | 1066.2 hPa | 4.32 mm | - | 115 W/m² | - |
| 1778091968 | 6.67° C | 99% | 1064.9 hPa | 6.6 mm | - | 95 W/m² | - |
| 1778091059 | 6.67° C | 99% | 1065.5 hPa | 1.78 mm | - | 39 W/m² | - |
| 1778089845 | 6.67° C | 99% | 1065.5 hPa | 1.27 mm | - | 74 W/m² | - |
| 1778089544 | 6.67° C | 99% | 1065.4 hPa | 0 mm | - | 83 W/m² | - |
| 1778088634 | 6.67° C | 99% | 1065.6 hPa | 1.78 mm | - | 90 W/m² | - |
| 1778088332 | 6.67° C | 99% | 1066.2 hPa | 0 mm | - | 104 W/m² | - |
| 1778086818 | 6.67° C | 99% | 1065.6 hPa | 0 mm | - | 38 W/m² | - |
* Rain latest hour (hover to see other rain measurements)
** Current wind speed in m/s (hover to see current wind gust speed)